Time,TemperatureF,DewpointF,PressureIn,WindDirection,WindDirectionDegrees,WindSpeedMPH,WindSpeedGustMPH,Humidity,HourlyPrecipIn,Conditions,Clouds,dailyrainin,SoftwareType,DateUTC
2013-11-12 00:02:00,37.2,18.3,29.99,ESE,122,0.0,4.0,46,0.00,,,0.00,meteohub,2013-11-12 05:02:00,
2013-11-12 00:07:00,37.4,18.1,29.99,WNW,302,0.0,3.0,45,0.00,,,0.00,meteohub,2013-11-12 05:07:00,
2013-11-12 00:12:00,36.9,18.5,29.99,SSE,168,5.0,5.0,47,0.00,,,0.00,meteohub,2013-11-12 05:12:00,
2013-11-12 00:17:00,36.9,18.5,29.99,SE,145,5.0,5.0,47,0.00,,,0.00,meteohub,2013-11-12 05:17:00,
2013-11-12 00:22:00,36.7,18.0,29.99,NNW,348,4.0,5.0,46,0.00,,,0.00,meteohub,2013-11-12 05:22:00,
2013-11-12 00:27:00,36.9,18.1,29.99,South,190,0.0,5.0,46,0.00,,,0.00,meteohub,2013-11-12 05:27:00,
2013-11-12 00:32:00,36.9,18.1,29.99,North,-999,-999.0,4.0,46,0.00,,,0.00,meteohub,2013-11-12 05:32:00,
2013-11-12 00:37:00,36.7,18.0,29.99,ESE,122,0.0,0.0,46,0.00,,,0.00,meteohub,2013-11-12 05:37:00,
2013-11-12 00:42:00,36.7,18.0,29.96,ESE,122,4.0,0.0,46,0.00,,,0.00,meteohub,2013-11-12 05:42:00,
2013-11-12 00:47:00,36.5,17.8,29.96,SSE,168,0.0,4.0,46,0.00,,,0.00,meteohub,2013-11-12 05:47:00,
2013-11-12 00:52:00,36.3,17.6,29.96,WNW,302,3.0,4.0,46,0.00,,,0.00,meteohub,2013-11-12 05:52:00,
2013-11-12 00:57:00,36.3,17.6,29.99,WNW,302,0.0,4.0,46,0.00,,,0.00,meteohub,2013-11-12 05:57:00,
2013-11-12 01:02:00,36.3,18.1,29.99,ESE,122,0.0,3.0,47,0.00,,,0.00,meteohub,2013-11-12 06:02:00,
2013-11-12 01:07:00,36.3,18.1,29.99,WNW,302,0.0,3.0,47,0.00,,,0.00,meteohub,2013-11-12 06:07:00,
2013-11-12 01:12:00,36.1,18.0,29.96,North,-999,-999.0,0.0,47,0.00,,,0.00,meteohub,2013-11-12 06:12:00,
2013-11-12 01:17:00,36.0,17.8,29.96,WNW,302,0.0,0.0,47,0.00,,,0.00,meteohub,2013-11-12 06:17:00,
2013-11-12 01:22:00,36.0,17.8,29.96,North,-999,-999.0,0.0,47,0.00,,,0.00,meteohub,2013-11-12 06:22:00,
2013-11-12 01:27:00,35.8,17.6,29.96,ESE,122,4.0,4.0,47,0.00,,,0.00,meteohub,2013-11-12 06:27:00,
2013-11-12 01:32:00,35.6,18.0,29.96,SSE,168,4.0,4.0,48,0.00,,,0.00,meteohub,2013-11-12 06:32:00,
2013-11-12 01:37:00,35.6,18.3,29.96,ESE,122,3.0,5.0,49,0.00,,,0.00,meteohub,2013-11-12 06:37:00,
2013-11-12 01:42:00,35.6,18.3,29.96,NE,55,3.0,5.0,49,0.00,,,0.00,meteohub,2013-11-12 06:42:00,
2013-11-12 01:47:00,35.4,18.1,29.96,NW,325,0.0,5.0,49,0.00,,,0.00,meteohub,2013-11-12 06:47:00,
2013-11-12 01:52:00,35.4,18.1,29.96,NW,325,0.0,3.0,49,0.00,,,0.00,meteohub,2013-11-12 06:52:00,
2013-11-12 02:02:00,35.4,18.7,29.96,WNW,302,2.0,5.0,50,0.00,,,0.00,meteohub,2013-11-12 07:02:00,
2013-11-12 02:07:00,35.2,18.5,29.96,SSE,168,5.0,5.0,50,0.00,,,0.00,meteohub,2013-11-12 07:07:00,
2013-11-12 02:12:00,35.4,18.7,29.96,South,190,4.0,5.0,50,0.00,,,0.00,meteohub,2013-11-12 07:12:00,
2013-11-12 02:17:00,35.1,18.3,29.93,SE,145,0.0,5.0,50,0.00,,,0.00,meteohub,2013-11-12 07:17:00,
2013-11-12 02:22:00,35.1,18.9,29.93,SE,145,0.0,4.0,51,0.00,,,0.00,meteohub,2013-11-12 07:22:00,
2013-11-12 02:27:00,35.1,18.9,29.96,North,-999,-999.0,0.0,51,0.00,,,0.00,meteohub,2013-11-12 07:27:00,
2013-11-12 02:32:00,35.4,19.6,29.96,SSE,168,5.0,0.0,52,0.00,,,0.00,meteohub,2013-11-12 07:32:00,
2013-11-12 02:37:00,35.1,18.9,29.96,NNW,348,3.0,5.0,51,0.00,,,0.00,meteohub,2013-11-12 07:37:00,
2013-11-12 02:42:00,34.9,18.7,29.96,WNW,302,3.0,5.0,51,0.00,,,0.00,meteohub,2013-11-12 07:42:00,
2013-11-12 02:47:00,35.1,18.9,29.96,WNW,302,3.0,8.0,51,0.00,,,0.00,meteohub,2013-11-12 07:47:00,
2013-11-12 02:52:00,35.4,19.2,29.96,SE,145,4.0,8.0,51,0.00,,,0.00,meteohub,2013-11-12 07:52:00,
2013-11-12 02:57:00,35.8,19.4,29.93,ENE,78,0.0,8.0,51,0.00,,,0.00,meteohub,2013-11-12 07:57:00,
2013-11-12 03:02:00,35.8,19.4,29.93,SSE,168,5.0,5.0,51,0.00,,,0.00,meteohub,2013-11-12 08:02:00,
2013-11-12 03:07:00,35.8,19.4,29.93,SSE,168,3.0,5.0,51,0.00,,,0.00,meteohub,2013-11-12 08:07:00,
2013-11-12 03:12:00,36.9,19.9,29.93,North,10,2.0,5.0,50,0.00,,,0.00,meteohub,2013-11-12 08:12:00,
2013-11-12 03:17:00,37.4,20.1,29.93,NNE,32,2.0,6.0,49,0.00,,,0.00,meteohub,2013-11-12 08:17:00,
2013-11-12 03:22:00,38.3,20.8,29.93,SE,145,4.0,6.0,49,0.00,,,0.00,meteohub,2013-11-12 08:22:00,
2013-11-12 03:27:00,38.7,20.3,29.93,WSW,258,3.0,4.0,47,0.00,,,0.00,meteohub,2013-11-12 08:27:00,
2013-11-12 03:32:00,39.2,20.1,29.93,North,-999,-999.0,4.0,46,0.00,,,0.00,meteohub,2013-11-12 08:32:00,
2013-11-12 03:37:00,40.3,20.7,29.93,NNW,348,8.0,8.0,45,0.00,,,0.00,meteohub,2013-11-12 08:37:00,
2013-11-12 03:42:00,39.9,20.8,29.93,WSW,258,5.0,8.0,46,0.00,,,0.00,meteohub,2013-11-12 08:42:00,
2013-11-12 03:47:00,41.5,21.7,29.93,East,100,9.0,9.0,45,0.00,,,0.00,meteohub,2013-11-12 08:47:00,
2013-11-12 03:52:00,42.3,21.9,29.93,West,280,3.0,13.0,44,0.00,,,0.00,meteohub,2013-11-12 08:52:00,
2013-11-12 03:57:00,42.6,22.3,29.93,North,10,4.0,13.0,44,0.00,,,0.00,meteohub,2013-11-12 08:57:00,
2013-11-12 04:02:00,43.3,22.5,29.93,WSW,258,6.0,13.0,43,0.00,,,0.00,meteohub,2013-11-12 09:02:00,
2013-11-12 04:07:00,43.3,22.5,29.93,WNW,302,0.0,6.0,43,0.00,,,0.00,meteohub,2013-11-12 09:07:00,
2013-11-12 04:12:00,43.7,22.1,29.93,WNW,302,5.0,6.0,42,0.00,,,0.00,meteohub,2013-11-12 09:12:00,
2013-11-12 04:17:00,44.2,22.6,29.93,WNW,302,10.0,10.0,42,0.00,,,0.00,meteohub,2013-11-12 09:17:00,
2013-11-12 04:22:00,46.0,24.3,29.93,NNW,348,16.0,23.0,42,0.00,,,0.00,meteohub,2013-11-12 09:22:00,
2013-11-12 04:32:00,46.2,24.4,29.96,West,280,6.0,23.0,42,0.00,,,0.00,meteohub,2013-11-12 09:32:00,
2013-11-12 04:37:00,46.2,25.0,29.96,WNW,302,21.0,30.0,43,0.00,,,0.00,meteohub,2013-11-12 09:37:00,
2013-11-12 04:42:00,46.0,25.3,29.96,WNW,302,26.0,30.0,44,0.00,,,0.00,meteohub,2013-11-12 09:42:00,
2013-11-12 04:47:00,46.0,25.3,29.96,WNW,302,13.0,26.0,44,0.00,,,0.00,meteohub,2013-11-12 09:47:00,
2013-11-12 04:52:00,46.0,25.3,29.96,NW,325,21.0,26.0,44,0.00,,,0.00,meteohub,2013-11-12 09:52:00,
2013-11-12 04:57:00,45.9,25.7,29.99,NNW,348,22.0,26.0,45,0.00,,,0.00,meteohub,2013-11-12 09:57:00,
2013-11-12 05:02:00,45.9,26.8,29.99,NW,325,26.0,26.0,47,0.00,,,0.00,meteohub,2013-11-12 10:02:00,
2013-11-12 05:07:00,45.7,26.6,29.99,NW,325,12.0,27.0,47,0.00,,,0.00,meteohub,2013-11-12 10:07:00,
2013-11-12 05:12:00,45.5,26.4,29.96,West,280,6.0,27.0,47,0.00,,,0.00,meteohub,2013-11-12 10:12:00,
2013-11-12 05:17:00,45.3,26.2,29.96,WSW,258,10.0,27.0,47,0.00,,,0.00,meteohub,2013-11-12 10:17:00,
2013-11-12 05:22:00,45.5,26.4,29.96,NNW,348,17.0,17.0,47,0.00,,,0.00,meteohub,2013-11-12 10:22:00,
2013-11-12 05:27:00,45.5,27.0,29.99,North,10,31.0,31.0,48,0.00,,,0.00,meteohub,2013-11-12 10:27:00,
2013-11-12 05:32:00,45.5,27.0,29.99,NNW,348,20.0,31.0,48,0.00,,,0.00,meteohub,2013-11-12 10:32:00,
2013-11-12 05:37:00,45.5,27.0,29.99,SSW,212,9.0,31.0,48,0.00,,,0.00,meteohub,2013-11-12 10:37:00,
2013-11-12 05:42:00,45.5,27.5,29.99,West,280,5.0,31.0,49,0.00,,,0.00,meteohub,2013-11-12 10:42:00,
2013-11-12 05:47:00,45.3,27.3,29.99,West,280,9.0,20.0,49,0.00,,,0.00,meteohub,2013-11-12 10:47:00,
2013-11-12 05:52:00,45.1,27.1,29.99,WNW,302,11.0,19.0,49,0.00,,,0.00,meteohub,2013-11-12 10:52:00,
2013-11-12 05:57:00,45.0,27.5,29.99,NW,325,16.0,16.0,50,0.00,,,0.00,meteohub,2013-11-12 10:57:00,
2013-11-12 06:02:00,45.0,27.5,29.99,North,10,6.0,17.0,50,0.00,,,0.00,meteohub,2013-11-12 11:02:00,
2013-11-12 06:07:00,44.8,27.3,29.99,WNW,302,6.0,17.0,50,0.00,,,0.00,meteohub,2013-11-12 11:07:00,
2013-11-12 06:12:00,44.2,27.3,29.99,WNW,302,13.0,22.0,51,0.00,,,0.00,meteohub,2013-11-12 11:12:00,
2013-11-12 06:17:00,43.9,27.0,29.99,NNW,348,17.0,22.0,51,0.00,,,0.00,meteohub,2013-11-12 11:17:00,
2013-11-12 06:22:00,43.5,26.6,29.99,WNW,302,25.0,25.0,51,0.00,,,0.00,meteohub,2013-11-12 11:22:00,
2013-11-12 06:27:00,43.3,26.4,29.99,NNW,348,18.0,25.0,51,0.00,,,0.00,meteohub,2013-11-12 11:27:00,
2013-11-12 06:32:00,43.0,26.1,29.99,NNW,348,30.0,30.0,51,0.00,,,0.00,meteohub,2013-11-12 11:32:00,
2013-11-12 06:37:00,42.8,25.9,29.99,NW,325,12.0,30.0,51,0.00,,,0.00,meteohub,2013-11-12 11:37:00,
2013-11-12 06:42:00,42.4,25.7,29.99,WSW,258,6.0,30.0,51,0.00,,,0.00,meteohub,2013-11-12 11:42:00,
2013-11-12 06:47:00,42.3,25.5,29.99,North,10,8.0,26.0,51,0.00,,,0.00,meteohub,2013-11-12 11:47:00,
2013-11-12 06:52:00,42.3,25.5,29.99,ENE,78,3.0,26.0,51,0.00,,,0.00,meteohub,2013-11-12 11:52:00,
2013-11-12 06:57:00,42.1,25.3,30.01,ENE,78,3.0,17.0,51,0.00,,,0.00,meteohub,2013-11-12 11:57:00,
2013-11-12 07:02:00,41.7,25.0,30.01,North,-999,-999.0,16.0,51,0.00,,,0.00,meteohub,2013-11-12 12:02:00,
2013-11-12 07:07:00,41.7,25.0,30.01,NNW,348,3.0,3.0,51,0.00,,,0.00,meteohub,2013-11-12 12:07:00,
2013-11-12 07:12:00,41.4,24.1,30.04,NNW,348,11.0,11.0,50,0.00,,,0.00,meteohub,2013-11-12 12:12:00,
2013-11-12 07:17:00,41.2,24.4,30.04,WNW,302,6.0,11.0,51,0.00,,,0.00,meteohub,2013-11-12 12:17:00,
2013-11-12 07:22:00,40.6,23.9,30.04,WNW,302,6.0,11.0,51,0.00,,,0.00,meteohub,2013-11-12 12:22:00,
2013-11-12 07:27:00,40.3,23.7,30.04,North,-999,-999.0,6.0,51,0.00,,,0.00,meteohub,2013-11-12 12:27:00,
2013-11-12 07:32:00,40.1,23.5,30.04,North,-999,-999.0,6.0,51,0.00,,,0.00,meteohub,2013-11-12 12:32:00,
2013-11-12 07:37:00,39.6,23.0,30.04,NNW,348,9.0,12.0,51,0.00,,,0.00,meteohub,2013-11-12 12:37:00,
2013-11-12 07:42:00,39.0,21.9,30.04,NNW,348,8.0,12.0,50,0.00,,,0.00,meteohub,2013-11-12 12:42:00,
2013-11-12 07:47:00,38.8,21.9,30.04,West,280,11.0,17.0,50,0.00,,,0.00,meteohub,2013-11-12 12:47:00,
2013-11-12 07:52:00,38.7,21.7,30.04,West,280,2.0,17.0,50,0.00,,,0.00,meteohub,2013-11-12 12:52:00,
2013-11-12 07:57:00,38.3,21.4,30.07,WNW,302,11.0,16.0,50,0.00,,,0.00,meteohub,2013-11-12 12:57:00,
2013-11-12 08:02:00,38.3,21.4,30.07,WNW,302,11.0,15.0,50,0.00,,,0.00,meteohub,2013-11-12 13:02:00,
2013-11-12 08:07:00,38.5,21.6,30.07,South,190,3.0,15.0,50,0.00,,,0.00,meteohub,2013-11-12 13:07:00,
2013-11-12 08:12:00,38.3,20.8,30.10,NNW,348,13.0,13.0,49,0.00,,,0.00,meteohub,2013-11-12 13:12:00,
2013-11-12 08:17:00,38.3,20.8,30.10,West,280,5.0,13.0,49,0.00,,,0.00,meteohub,2013-11-12 13:17:00,
2013-11-12 08:22:00,37.9,20.1,30.10,North,10,24.0,24.0,48,0.00,,,0.00,meteohub,2013-11-12 13:22:00,
2013-11-12 08:27:00,37.8,19.4,30.10,NNW,348,11.0,24.0,47,0.00,,,0.00,meteohub,2013-11-12 13:27:00,
2013-11-12 08:32:00,37.8,19.4,30.10,NNW,348,8.0,24.0,47,0.00,,,0.00,meteohub,2013-11-12 13:32:00,
2013-11-12 08:37:00,37.9,19.6,30.10,North,-999,-999.0,24.0,47,0.00,,,0.00,meteohub,2013-11-12 13:37:00,
2013-11-12 08:42:00,37.9,19.6,30.10,WSW,258,3.0,20.0,47,0.00,,,0.00,meteohub,2013-11-12 13:42:00,
2013-11-12 08:47:00,37.9,20.1,30.10,NW,325,9.0,9.0,48,0.00,,,0.00,meteohub,2013-11-12 13:47:00,
2013-11-12 08:52:00,37.6,19.8,30.10,WNW,302,7.0,9.0,48,0.00,,,0.00,meteohub,2013-11-12 13:52:00,
2013-11-12 08:57:00,37.4,19.6,30.10,WNW,302,17.0,17.0,48,0.00,,,0.00,meteohub,2013-11-12 13:57:00,
2013-11-12 09:02:00,37.4,19.6,30.10,WNW,302,7.0,17.0,48,0.00,,,0.00,meteohub,2013-11-12 14:02:00,
2013-11-12 09:07:00,37.4,19.6,30.10,North,10,7.0,17.0,48,0.00,,,0.00,meteohub,2013-11-12 14:07:00,
2013-11-12 09:12:00,37.4,19.6,30.10,West,280,7.0,17.0,48,0.00,,,0.00,meteohub,2013-11-12 14:12:00,
2013-11-12 09:17:00,37.6,20.1,30.10,WSW,258,4.0,7.0,49,0.00,,,0.00,meteohub,2013-11-12 14:17:00,
2013-11-12 09:22:00,37.4,19.6,30.10,NW,325,6.0,9.0,48,0.00,,,0.00,meteohub,2013-11-12 14:22:00,
2013-11-12 09:27:00,37.4,19.6,30.10,NW,325,6.0,9.0,48,0.00,,,0.00,meteohub,2013-11-12 14:27:00,
2013-11-12 09:32:00,37.4,19.6,30.10,North,-999,-999.0,7.0,48,0.00,,,0.00,meteohub,2013-11-12 14:32:00,
2013-11-12 09:37:00,37.6,19.8,30.10,North,10,11.0,11.0,48,0.00,,,0.00,meteohub,2013-11-12 14:37:00,
2013-11-12 09:42:00,37.6,19.2,30.10,NNW,348,11.0,13.0,47,0.00,,,0.00,meteohub,2013-11-12 14:42:00,
2013-11-12 09:47:00,37.4,18.5,30.10,NNW,348,22.0,22.0,46,0.00,,,0.00,meteohub,2013-11-12 14:47:00,
2013-11-12 09:52:00,37.2,18.0,30.10,NNW,348,17.0,22.0,45,0.00,,,0.00,meteohub,2013-11-12 14:52:00,
2013-11-12 09:57:00,37.2,18.0,30.10,NNW,348,22.0,25.0,45,0.00,,,0.00,meteohub,2013-11-12 14:57:00,
2013-11-12 10:02:00,37.0,17.8,30.10,NW,325,11.0,25.0,45,0.00,,,0.00,meteohub,2013-11-12 15:02:00,
2013-11-12 10:07:00,36.7,18.0,30.10,NNW,348,15.0,25.0,46,0.00,,,0.00,meteohub,2013-11-12 15:07:00,
2013-11-12 10:12:00,36.9,17.6,30.10,NNW,348,12.0,17.0,45,0.00,,,0.00,meteohub,2013-11-12 15:12:00,
2013-11-12 10:17:00,37.4,18.1,30.10,North,10,6.0,15.0,45,0.00,,,0.00,meteohub,2013-11-12 15:17:00,
2013-11-12 10:22:00,37.2,18.3,30.10,NNW,348,6.0,12.0,46,0.00,,,0.00,meteohub,2013-11-12 15:22:00,
2013-11-12 10:27:00,36.9,18.1,30.13,North,-999,-999.0,12.0,46,0.00,,,0.00,meteohub,2013-11-12 15:27:00,
2013-11-12 10:32:00,36.9,18.1,30.13,WNW,302,8.0,11.0,46,0.00,,,0.00,meteohub,2013-11-12 15:32:00,
2013-11-12 10:37:00,37.2,18.3,30.13,NNE,32,5.0,14.0,46,0.00,,,0.00,meteohub,2013-11-12 15:37:00,
2013-11-12 10:42:00,37.4,18.5,30.10,WNW,302,8.0,14.0,46,0.00,,,0.00,meteohub,2013-11-12 15:42:00,
2013-11-12 10:47:00,37.2,18.3,30.10,North,10,21.0,21.0,46,0.00,,,0.00,meteohub,2013-11-12 15:47:00,
2013-11-12 10:52:00,36.9,18.1,30.10,NNW,348,11.0,21.0,46,0.00,,,0.00,meteohub,2013-11-12 15:52:00,
2013-11-12 10:57:00,36.5,17.2,30.10,NNE,32,13.0,26.0,45,0.00,,,0.00,meteohub,2013-11-12 15:57:00,
2013-11-12 11:02:00,36.5,17.2,30.10,WNW,302,12.0,26.0,45,0.00,,,0.00,meteohub,2013-11-12 16:02:00,
2013-11-12 11:07:00,36.7,17.4,30.10,WNW,302,12.0,26.0,45,0.00,,,0.00,meteohub,2013-11-12 16:07:00,
2013-11-12 11:12:00,36.7,17.4,30.10,NNW,348,12.0,16.0,45,0.00,,,0.00,meteohub,2013-11-12 16:12:00,
2013-11-12 11:17:00,36.7,17.4,30.10,NW,325,10.0,21.0,45,0.00,,,0.00,meteohub,2013-11-12 16:17:00,
2013-11-12 11:22:00,36.5,16.7,30.10,NNW,348,17.0,21.0,44,0.00,,,0.00,meteohub,2013-11-12 16:22:00,
2013-11-12 11:27:00,36.3,16.5,30.13,WNW,302,13.0,21.0,44,0.00,,,0.00,meteohub,2013-11-12 16:27:00,
2013-11-12 11:32:00,36.1,16.3,30.13,WNW,302,12.0,21.0,44,0.00,,,0.00,meteohub,2013-11-12 16:32:00,
2013-11-12 11:37:00,36.3,16.5,30.13,NNE,32,8.0,21.0,44,0.00,,,0.00,meteohub,2013-11-12 16:37:00,
2013-11-12 11:42:00,36.7,16.9,30.13,NNW,348,13.0,16.0,44,0.00,,,0.00,meteohub,2013-11-12 16:42:00,
2013-11-12 11:47:00,36.1,16.3,30.13,NW,325,14.0,15.0,44,0.00,,,0.00,meteohub,2013-11-12 16:47:00,
2013-11-12 11:52:00,36.1,16.3,30.13,WNW,302,8.0,14.0,44,0.00,,,0.00,meteohub,2013-11-12 16:52:00,
2013-11-12 11:57:00,36.1,16.3,30.13,NNW,348,8.0,21.0,44,0.00,,,0.00,meteohub,2013-11-12 16:57:00,
2013-11-12 12:02:00,35.8,16.0,30.13,North,-999,-999.0,21.0,44,0.00,,,0.00,meteohub,2013-11-12 17:02:00,
2013-11-12 12:07:00,36.0,16.2,30.13,West,280,12.0,21.0,44,0.00,,,0.00,meteohub,2013-11-12 17:07:00,
2013-11-12 12:12:00,35.6,16.0,30.13,West,280,11.0,12.0,44,0.00,,,0.00,meteohub,2013-11-12 17:12:00,
2013-11-12 12:17:00,35.2,15.6,30.13,NNW,348,13.0,13.0,44,0.00,,,0.00,meteohub,2013-11-12 17:17:00,
2013-11-12 12:22:00,35.2,15.6,30.13,NNW,348,16.0,16.0,44,0.00,,,0.00,meteohub,2013-11-12 17:22:00,
2013-11-12 12:27:00,35.1,14.9,30.16,NNW,348,21.0,21.0,43,0.00,,,0.00,meteohub,2013-11-12 17:27:00,
2013-11-12 12:32:00,35.2,15.1,30.16,North,-999,-999.0,21.0,43,0.00,,,0.00,meteohub,2013-11-12 17:32:00,
2013-11-12 12:37:00,35.4,15.3,30.16,NW,325,13.0,21.0,43,0.00,,,0.00,meteohub,2013-11-12 17:37:00,
2013-11-12 12:42:00,34.7,14.5,30.16,NW,325,17.0,17.0,43,0.00,,,0.00,meteohub,2013-11-12 17:42:00,
2013-11-12 12:47:00,34.7,14.5,30.16,NNE,32,13.0,17.0,43,0.00,,,0.00,meteohub,2013-11-12 17:47:00,
2013-11-12 12:52:00,34.7,14.5,30.16,North,10,9.0,17.0,43,0.00,,,0.00,meteohub,2013-11-12 17:52:00,
2013-11-12 12:57:00,34.3,14.2,30.16,WNW,302,12.0,17.0,43,0.00,,,0.00,meteohub,2013-11-12 17:57:00,
2013-11-12 13:02:00,34.2,14.0,30.16,NNW,348,13.0,17.0,43,0.00,,,0.00,meteohub,2013-11-12 18:02:00,
2013-11-12 13:07:00,34.0,13.8,30.16,NNW,348,26.0,26.0,43,0.00,,,0.00,meteohub,2013-11-12 18:07:00,
2013-11-12 13:12:00,33.8,13.8,30.16,NW,325,15.0,26.0,43,0.00,,,0.00,meteohub,2013-11-12 18:12:00,
2013-11-12 13:17:00,33.8,13.8,30.16,North,10,26.0,26.0,43,0.00,,,0.00,meteohub,2013-11-12 18:17:00,
2013-11-12 13:22:00,34.2,14.0,30.16,NNW,348,15.0,26.0,43,0.00,,,0.00,meteohub,2013-11-12 18:22:00,
2013-11-12 13:27:00,33.6,13.6,30.16,WNW,302,13.0,26.0,43,0.00,,,0.00,meteohub,2013-11-12 18:27:00,
2013-11-12 13:32:00,33.8,13.8,30.16,NNW,348,16.0,26.0,43,0.00,,,0.00,meteohub,2013-11-12 18:32:00,
2013-11-12 13:37:00,33.6,13.6,30.16,WNW,302,20.0,22.0,43,0.00,,,0.00,meteohub,2013-11-12 18:37:00,
2013-11-12 13:42:00,33.6,13.6,30.16,NNW,348,10.0,22.0,43,0.00,,,0.00,meteohub,2013-11-12 18:42:00,
2013-11-12 13:47:00,33.4,13.5,30.16,North,10,13.0,22.0,43,0.00,,,0.00,meteohub,2013-11-12 18:47:00,
2013-11-12 13:52:00,33.6,13.6,30.16,NNW,348,9.0,26.0,43,0.00,,,0.00,meteohub,2013-11-12 18:52:00,
2013-11-12 13:57:00,33.6,13.6,30.13,West,280,11.0,26.0,43,0.00,,,0.00,meteohub,2013-11-12 18:57:00,
2013-11-12 14:02:00,34.0,13.8,30.13,North,10,11.0,26.0,43,0.00,,,0.00,meteohub,2013-11-12 19:02:00,
2013-11-12 14:07:00,34.0,13.8,30.13,North,10,11.0,21.0,43,0.00,,,0.00,meteohub,2013-11-12 19:07:00,
2013-11-12 14:12:00,33.8,13.3,30.16,North,10,26.0,26.0,42,0.00,,,0.00,meteohub,2013-11-12 19:12:00,
2013-11-12 14:17:00,34.0,13.8,30.16,North,10,26.0,26.0,43,0.00,,,0.00,meteohub,2013-11-12 19:17:00,
2013-11-12 14:22:00,34.0,13.8,30.16,NW,325,14.0,26.0,43,0.00,,,0.00,meteohub,2013-11-12 19:22:00,
2013-11-12 14:27:00,33.8,13.8,30.19,NW,325,14.0,26.0,43,0.00,,,0.00,meteohub,2013-11-12 19:27:00,
2013-11-12 14:32:00,33.6,13.6,30.19,NNW,348,11.0,15.0,43,0.00,,,0.00,meteohub,2013-11-12 19:32:00,
2013-11-12 14:37:00,33.4,13.5,30.19,WNW,302,8.0,15.0,43,0.00,,,0.00,meteohub,2013-11-12 19:37:00,
2013-11-12 14:42:00,33.6,13.6,30.16,WNW,302,15.0,15.0,43,0.00,,,0.00,meteohub,2013-11-12 19:42:00,
2013-11-12 14:47:00,33.4,13.5,30.16,NNW,348,12.0,20.0,43,0.00,,,0.00,meteohub,2013-11-12 19:47:00,
2013-11-12 14:52:00,33.4,12.9,30.16,WNW,302,17.0,20.0,42,0.00,,,0.00,meteohub,2013-11-12 19:52:00,
2013-11-12 14:57:00,33.3,12.7,30.16,WNW,302,9.0,20.0,42,0.00,,,0.00,meteohub,2013-11-12 19:57:00,
2013-11-12 15:02:00,33.4,12.9,30.16,NNE,32,6.0,20.0,42,0.00,,,0.00,meteohub,2013-11-12 20:02:00,
2013-11-12 15:07:00,33.3,12.7,30.16,North,-999,-999.0,17.0,42,0.00,,,0.00,meteohub,2013-11-12 20:07:00,
2013-11-12 15:12:00,33.3,12.7,30.16,NNE,32,17.0,17.0,42,0.00,,,0.00,meteohub,2013-11-12 20:12:00,
2013-11-12 15:17:00,32.9,12.4,30.16,WNW,302,26.0,26.0,42,0.00,,,0.00,meteohub,2013-11-12 20:17:00,
2013-11-12 15:22:00,32.7,12.7,30.16,NW,325,16.0,26.0,43,0.00,,,0.00,meteohub,2013-11-12 20:22:00,
2013-11-12 15:27:00,32.7,12.7,30.19,NNW,348,12.0,26.0,43,0.00,,,0.00,meteohub,2013-11-12 20:27:00,
2013-11-12 15:32:00,32.4,12.4,30.19,NNW,348,11.0,26.0,43,0.00,,,0.00,meteohub,2013-11-12 20:32:00,
2013-11-12 15:37:00,32.2,11.7,30.19,NNE,32,5.0,31.0,42,0.00,,,0.00,meteohub,2013-11-12 20:37:00,
2013-11-12 15:42:00,32.5,12.6,30.19,North,10,11.0,31.0,43,0.00,,,0.00,meteohub,2013-11-12 20:42:00,
2013-11-12 15:47:00,32.4,11.8,30.19,NNW,348,12.0,21.0,42,0.00,,,0.00,meteohub,2013-11-12 20:47:00,
2013-11-12 15:52:00,32.2,11.7,30.19,WNW,302,9.0,25.0,42,0.00,,,0.00,meteohub,2013-11-12 20:52:00,
2013-11-12 15:57:00,32.2,11.7,30.19,NNE,32,11.0,25.0,42,0.00,,,0.00,meteohub,2013-11-12 20:57:00,
2013-11-12 16:02:00,31.8,11.3,30.19,NNE,32,11.0,17.0,42,0.00,,,0.00,meteohub,2013-11-12 21:02:00,
2013-11-12 16:07:00,31.6,11.1,30.19,North,10,9.0,17.0,42,0.00,,,0.00,meteohub,2013-11-12 21:07:00,
2013-11-12 16:12:00,31.5,11.1,30.19,NNW,348,15.0,15.0,42,0.00,,,0.00,meteohub,2013-11-12 21:12:00,
2013-11-12 16:17:00,31.5,11.1,30.19,SW,235,13.0,15.0,42,0.00,,,0.00,meteohub,2013-11-12 21:17:00,
2013-11-12 16:22:00,31.3,10.9,30.19,NNW,348,17.0,17.0,42,0.00,,,0.00,meteohub,2013-11-12 21:22:00,
2013-11-12 16:27:00,31.5,11.1,30.19,NW,325,7.0,17.0,42,0.00,,,0.00,meteohub,2013-11-12 21:27:00,
2013-11-12 16:37:00,31.1,10.8,30.19,NNW,348,10.0,10.0,42,0.00,,,0.00,meteohub,2013-11-12 21:37:00,
2013-11-12 16:42:00,30.7,10.4,30.22,NW,325,7.0,10.0,42,0.00,,,0.00,meteohub,2013-11-12 21:42:00,
2013-11-12 16:47:00,30.7,10.4,30.22,NNW,348,11.0,11.0,42,0.00,,,0.00,meteohub,2013-11-12 21:47:00,
2013-11-12 16:52:00,30.6,10.2,30.22,NW,325,15.0,16.0,42,0.00,,,0.00,meteohub,2013-11-12 21:52:00,
2013-11-12 16:57:00,30.4,10.0,30.22,WNW,302,16.0,21.0,42,0.00,,,0.00,meteohub,2013-11-12 21:57:00,
2013-11-12 17:02:00,30.2,9.9,30.22,NNW,348,17.0,26.0,42,0.00,,,0.00,meteohub,2013-11-12 22:02:00,
2013-11-12 17:07:00,30.0,9.7,30.22,WNW,302,21.0,26.0,42,0.00,,,0.00,meteohub,2013-11-12 22:07:00,
2013-11-12 17:12:00,30.0,10.2,30.22,NW,325,7.0,26.0,43,0.00,,,0.00,meteohub,2013-11-12 22:12:00,
2013-11-12 17:17:00,29.8,10.0,30.22,WNW,302,8.0,21.0,43,0.00,,,0.00,meteohub,2013-11-12 22:17:00,
2013-11-12 17:22:00,29.5,9.9,30.22,North,10,9.0,21.0,43,0.00,,,0.00,meteohub,2013-11-12 22:22:00,
2013-11-12 17:27:00,29.1,9.5,30.22,NNW,348,11.0,12.0,43,0.00,,,0.00,meteohub,2013-11-12 22:27:00,
2013-11-12 17:32:00,28.9,9.3,30.22,NW,325,9.0,12.0,43,0.00,,,0.00,meteohub,2013-11-12 22:32:00,
2013-11-12 17:37:00,28.8,8.6,30.22,NW,325,22.0,22.0,42,0.00,,,0.00,meteohub,2013-11-12 22:37:00,
2013-11-12 17:42:00,28.9,8.8,30.25,NNW,348,11.0,22.0,42,0.00,,,0.00,meteohub,2013-11-12 22:42:00,
2013-11-12 17:47:00,28.8,8.6,30.25,WNW,302,26.0,26.0,42,0.00,,,0.00,meteohub,2013-11-12 22:47:00,
2013-11-12 17:52:00,28.6,8.4,30.25,NW,325,16.0,26.0,42,0.00,,,0.00,meteohub,2013-11-12 22:52:00,
2013-11-12 18:02:00,28.2,8.6,30.25,NW,325,19.0,19.0,43,0.00,,,0.00,meteohub,2013-11-12 23:02:00,
2013-11-12 18:07:00,28.0,8.4,30.25,NNW,348,16.0,19.0,43,0.00,,,0.00,meteohub,2013-11-12 23:07:00,
2013-11-12 18:12:00,27.9,8.2,30.25,NW,325,11.0,19.0,43,0.00,,,0.00,meteohub,2013-11-12 23:12:00,
2013-11-12 18:17:00,28.0,8.4,30.25,WNW,302,10.0,19.0,43,0.00,,,0.00,meteohub,2013-11-12 23:17:00,
2013-11-12 18:22:00,27.9,8.2,30.25,WSW,258,6.0,16.0,43,0.00,,,0.00,meteohub,2013-11-12 23:22:00,
2013-11-12 18:27:00,27.9,8.8,30.25,NW,325,7.0,11.0,44,0.00,,,0.00,meteohub,2013-11-12 23:27:00,
2013-11-12 18:32:00,27.9,8.8,30.25,WNW,302,13.0,13.0,44,0.00,,,0.00,meteohub,2013-11-12 23:32:00,
2013-11-12 18:37:00,27.9,8.8,30.25,NNW,348,12.0,13.0,44,0.00,,,0.00,meteohub,2013-11-12 23:37:00,
2013-11-12 18:42:00,27.9,8.8,30.28,WNW,302,5.0,13.0,44,0.00,,,0.00,meteohub,2013-11-12 23:42:00,
2013-11-12 18:47:00,27.7,8.6,30.28,WNW,302,8.0,12.0,44,0.00,,,0.00,meteohub,2013-11-12 23:47:00,
2013-11-12 18:52:00,27.5,8.4,30.28,WNW,302,17.0,17.0,44,0.00,,,0.00,meteohub,2013-11-12 23:52:00,
2013-11-12 18:57:00,27.3,8.2,30.28,WNW,302,9.0,17.0,44,0.00,,,0.00,meteohub,2013-11-12 23:57:00,
2013-11-12 19:02:00,27.3,8.2,30.28,WNW,302,9.0,19.0,44,0.00,,,0.00,meteohub,2013-11-13 00:02:00,
2013-11-12 19:12:00,27.3,8.2,30.28,South,190,4.0,19.0,44,0.00,,,0.00,meteohub,2013-11-13 00:12:00,
2013-11-12 19:17:00,27.1,8.1,30.28,NW,325,11.0,11.0,44,0.00,,,0.00,meteohub,2013-11-13 00:17:00,
2013-11-12 19:22:00,27.1,8.1,30.28,NNW,348,13.0,16.0,44,0.00,,,0.00,meteohub,2013-11-13 00:22:00,
2013-11-12 19:27:00,27.1,8.1,30.28,WNW,302,13.0,16.0,44,0.00,,,0.00,meteohub,2013-11-13 00:27:00,
2013-11-12 19:32:00,27.0,8.1,30.28,North,10,9.0,16.0,44,0.00,,,0.00,meteohub,2013-11-13 00:32:00,
2013-11-12 19:37:00,27.0,8.1,30.28,NNW,348,11.0,16.0,44,0.00,,,0.00,meteohub,2013-11-13 00:37:00,
2013-11-12 19:42:00,27.0,8.1,30.28,West,280,13.0,13.0,44,0.00,,,0.00,meteohub,2013-11-13 00:42:00,
2013-11-12 19:47:00,27.0,8.1,30.28,WNW,302,10.0,13.0,44,0.00,,,0.00,meteohub,2013-11-13 00:47:00,
2013-11-12 19:52:00,27.0,7.5,30.28,WNW,302,8.0,16.0,43,0.00,,,0.00,meteohub,2013-11-13 00:52:00,
2013-11-12 19:57:00,27.0,7.5,30.28,NW,325,11.0,16.0,43,0.00,,,0.00,meteohub,2013-11-13 00:57:00,
2013-11-12 20:02:00,27.0,7.5,30.28,East,100,8.0,15.0,43,0.00,,,0.00,meteohub,2013-11-13 01:02:00,
2013-11-12 20:07:00,27.0,7.5,30.28,East,100,8.0,15.0,43,0.00,,,0.00,meteohub,2013-11-13 01:07:00,
2013-11-12 20:12:00,27.0,7.5,30.28,WNW,302,2.0,15.0,43,0.00,,,0.00,meteohub,2013-11-13 01:12:00,
2013-11-12 20:17:00,27.1,7.7,30.28,NNW,348,26.0,26.0,43,0.00,,,0.00,meteohub,2013-11-13 01:17:00,
2013-11-12 20:22:00,27.1,7.7,30.28,ENE,78,8.0,26.0,43,0.00,,,0.00,meteohub,2013-11-13 01:22:00,
2013-11-12 20:27:00,27.0,7.5,30.28,NNW,348,11.0,26.0,43,0.00,,,0.00,meteohub,2013-11-13 01:27:00,
2013-11-12 20:32:00,27.0,7.5,30.28,North,10,7.0,26.0,43,0.00,,,0.00,meteohub,2013-11-13 01:32:00,
2013-11-12 20:37:00,27.0,7.5,30.28,NW,325,5.0,11.0,43,0.00,,,0.00,meteohub,2013-11-13 01:37:00,
2013-11-12 20:42:00,27.0,7.5,30.28,NNW,348,7.0,7.0,43,0.00,,,0.00,meteohub,2013-11-13 01:42:00,
2013-11-12 20:47:00,26.6,7.7,30.28,WSW,258,5.0,7.0,44,0.00,,,0.00,meteohub,2013-11-13 01:47:00,
2013-11-12 20:52:00,26.6,7.7,30.28,SW,235,3.0,7.0,44,0.00,,,0.00,meteohub,2013-11-13 01:52:00,
2013-11-12 20:57:00,26.4,7.5,30.28,SSW,212,3.0,7.0,44,0.00,,,0.00,meteohub,2013-11-13 01:57:00,
2013-11-12 21:02:00,26.1,7.2,30.28,SSW,212,4.0,6.0,44,0.00,,,0.00,meteohub,2013-11-13 02:02:00,
2013-11-12 21:07:00,25.9,7.0,30.28,South,190,4.0,5.0,44,0.00,,,0.00,meteohub,2013-11-13 02:07:00,
2013-11-12 21:12:00,25.9,7.0,30.28,West,280,0.0,5.0,44,0.00,,,0.00,meteohub,2013-11-13 02:12:00,
2013-11-12 21:17:00,25.9,7.0,30.28,NW,325,2.0,5.0,44,0.00,,,0.00,meteohub,2013-11-13 02:17:00,
2013-11-12 21:22:00,25.9,7.0,30.28,SSW,212,3.0,5.0,44,0.00,,,0.00,meteohub,2013-11-13 02:22:00,
2013-11-12 21:27:00,25.5,7.2,30.31,South,190,7.0,7.0,45,0.00,,,0.00,meteohub,2013-11-13 02:27:00,
2013-11-12 21:32:00,25.5,7.2,30.31,SSW,212,13.0,13.0,45,0.00,,,0.00,meteohub,2013-11-13 02:32:00,
2013-11-12 21:37:00,25.7,7.3,30.31,SSW,212,2.0,13.0,45,0.00,,,0.00,meteohub,2013-11-13 02:37:00,
2013-11-12 21:42:00,25.9,8.1,30.31,WSW,258,0.0,13.0,46,0.00,,,0.00,meteohub,2013-11-13 02:42:00,
2013-11-12 21:47:00,26.1,8.6,30.31,SSW,212,5.0,13.0,47,0.00,,,0.00,meteohub,2013-11-13 02:47:00,
2013-11-12 21:52:00,26.1,9.1,30.31,SSW,212,4.0,7.0,48,0.00,,,0.00,meteohub,2013-11-13 02:52:00,
2013-11-12 21:57:00,26.1,9.1,30.31,SSW,212,5.0,6.0,48,0.00,,,0.00,meteohub,2013-11-13 02:57:00,
2013-11-12 22:02:00,25.9,9.3,30.31,South,190,6.0,8.0,49,0.00,,,0.00,meteohub,2013-11-13 03:02:00,
2013-11-12 22:07:00,25.9,9.3,30.31,SSE,168,7.0,12.0,49,0.00,,,0.00,meteohub,2013-11-13 03:07:00,
2013-11-12 22:12:00,25.9,9.9,30.31,SSW,212,5.0,15.0,50,0.00,,,0.00,meteohub,2013-11-13 03:12:00,
2013-11-12 22:17:00,25.7,9.7,30.31,SSW,212,3.0,15.0,50,0.00,,,0.00,meteohub,2013-11-13 03:17:00,
2013-11-12 22:22:00,25.5,9.9,30.31,SW,235,4.0,8.0,51,0.00,,,0.00,meteohub,2013-11-13 03:22:00,
2013-11-12 22:27:00,25.7,10.0,30.31,SW,235,0.0,5.0,51,0.00,,,0.00,meteohub,2013-11-13 03:27:00,
2013-11-12 22:32:00,25.7,10.0,30.31,South,190,6.0,6.0,51,0.00,,,0.00,meteohub,2013-11-13 03:32:00,
2013-11-12 22:37:00,25.5,10.4,30.31,SSW,212,5.0,6.0,52,0.00,,,0.00,meteohub,2013-11-13 03:37:00,
2013-11-12 22:42:00,25.3,10.2,30.31,SSW,212,5.0,6.0,52,0.00,,,0.00,meteohub,2013-11-13 03:42:00,
2013-11-12 22:47:00,25.3,10.2,30.31,SSW,212,4.0,11.0,52,0.00,,,0.00,meteohub,2013-11-13 03:47:00,
2013-11-12 22:52:00,25.7,10.6,30.31,SSE,168,8.0,11.0,52,0.00,,,0.00,meteohub,2013-11-13 03:52:00,
2013-11-12 22:57:00,25.5,10.8,30.31,WSW,258,9.0,11.0,53,0.00,,,0.00,meteohub,2013-11-13 03:57:00,
2013-11-12 23:02:00,25.7,10.9,30.31,WNW,302,0.0,11.0,53,0.00,,,0.00,meteohub,2013-11-13 04:02:00,
2013-11-12 23:07:00,25.7,10.6,30.31,SSW,212,5.0,13.0,52,0.00,,,0.00,meteohub,2013-11-13 04:07:00,
2013-11-12 23:12:00,25.7,10.9,30.31,SSE,168,3.0,13.0,53,0.00,,,0.00,meteohub,2013-11-13 04:12:00,
2013-11-12 23:17:00,25.5,10.8,30.31,WSW,258,12.0,12.0,53,0.00,,,0.00,meteohub,2013-11-13 04:17:00,
2013-11-12 23:22:00,25.7,10.6,30.31,WNW,302,10.0,13.0,52,0.00,,,0.00,meteohub,2013-11-13 04:22:00,
2013-11-12 23:27:00,25.5,10.4,30.31,South,190,5.0,13.0,52,0.00,,,0.00,meteohub,2013-11-13 04:27:00,
2013-11-12 23:32:00,25.3,10.2,30.31,SW,235,7.0,13.0,52,0.00,,,0.00,meteohub,2013-11-13 04:32:00,
2013-11-12 23:37:00,25.3,10.2,30.31,WSW,258,2.0,10.0,52,0.00,,,0.00,meteohub,2013-11-13 04:37:00,
2013-11-12 23:42:00,25.5,9.9,30.31,NNW,348,10.0,10.0,51,0.00,,,0.00,meteohub,2013-11-13 04:42:00,
2013-11-12 23:47:00,25.5,9.9,30.31,SSW,212,7.0,16.0,51,0.00,,,0.00,meteohub,2013-11-13 04:47:00,
2013-11-12 23:52:00,25.7,10.0,30.31,South,190,5.0,16.0,51,0.00,,,0.00,meteohub,2013-11-13 04:52:00,
2013-11-12 23:57:00,25.7,10.0,30.31,WSW,258,0.0,16.0,51,0.00,,,0.00,meteohub,2013-11-13 04:57:00,